[Iaude] MPEC V209: 2023 VH7 [a=0.96,e=0.08,i=13.7,H=25.7]
    mpec at marsden.cfa.harvard.edu 
    mpec at marsden.cfa.harvard.edu
       
    Sat Nov 11 22:42:02 EST 2023
    
    
  
M.P.E.C. 2023-V209                            Issued 2023 November 12, 03:32 UT
     The Minor Planet Electronic Circulars contain information on unusual
         minor planets, routine data on comets and natural satellites,
         and occasional editorial announcements.  They are published
    on behalf of Division F of the International Astronomical Union by the
          Minor Planet Center, Smithsonian Astrophysical Observatory,
                          Cambridge, MA 02138, U.S.A.
			  
             Prepared using the Tamkin Foundation Computer Network
                              MPC at CFA.HARVARD.EDU
            URL https://www.minorplanetcenter.net/    ISSN 1523-6714
                                    2023 VH7                                    
Observations:
     K23V07H* C2023 11 10.41857805 22 48.961+23 35 37.25               VEV209V00
     K23V07H  C2023 11 10.42407805 22 47.428+23 34 19.02         20.86GVEV209V00
     K23V07H  C2023 11 10.42958205 22 45.887+23 33 00.61               VEV209V00
     K23V07H  C2023 11 10.43509505 22 44.346+23 31 41.02         20.71GVEV209V00
     K23V07H KC2023 11 10.49314205 22 28.085+23 17 41.24         19.93GVEV209I52
     K23V07H KC2023 11 10.49487605 22 27.646+23 17 16.40         20.51GVEV209I52
     K23V07H KC2023 11 10.49660305 22 27.131+23 16 51.64         20.03GVEV209I52
     K23V07H KC2023 11 10.49833305 22 26.720+23 16 26.69         20.71GVEV209I52
     K23V07H KC2023 11 10.98449505 20 48.055+21 18 15.26         20.3 GVEV209J95
     K23V07H KC2023 11 11.04390605 20 32.369+21 03 48.67         20.6 GVEV209J95
     K23V07H KC2023 11 11.05223005 20 30.132+21 01 47.50         20.4 GVEV209J95
     K23V07H KC2023 11 11.06589405 20 26.453+20 58 26.54         20.0 GVEV209J95
     K23V07H KC2023 11 11.07874505 20 23.076+20 55 18.12         20.8 GVEV209J95
     K23V07H !C2023 11 11.09460105 20 21.256+20 52 23.39         20.7 GVEV209J04
     K23V07H !C2023 11 11.09747905 20 20.458+20 51 41.12         21.2 GVEV209J04
     K23V07H HC2023 11 11.12609 05 20 08.73 +20 43 50.2          20.5 GVEV209204
     K23V07H HC2023 11 11.14037 05 20 04.92 +20 40 18.4                VEV209204
     K23V07H mC2023 11 11.52400705 18 35.057+19 05 35.66         21.59GVEV209I52
     K23V07H mC2023 11 11.52437405 18 34.996+19 05 30.01         20.23GVEV209I52
     K23V07H mC2023 11 11.52474105 18 34.913+19 05 24.58         20.61GVEV209I52
     K23V07H mC2023 11 11.52511305 18 34.801+19 05 18.85         20.82GVEV209I52
     K23V07H IC2023 11 12.02085205 16 50.46 +16 59 59.7          20.8 GVEV209L01
     K23V07H KC2023 11 12.02310305 16 49.83 +16 59 25.4          21.0 GVEV209L01
     K23V07H KC2023 11 12.02535505 16 49.22 +16 58 51.3          21.0 GVEV209L01
Observer details:
204 Schiaparelli Observatory.  Observers L. Buzzi, G. Galli.  0.84-m f/3.5
    reflector + CCD.
I52 Steward Observatory, Mt. Lemmon Station.  Observers H. Groeller, J. K.
    Hogan.  Measurers E. C. Beshore, D. Fay, J. B. Fazekas, D. C. Fuls, A. R.
    Gibbs, A. D. Grauer, H. Groeller, J. K. Hogan, R. A. Kowalski, S. M.
    Larson, G. J. Leonard, D. Rankin, R. L. Seaman, F. C. Shelly, K. W.
    Wierzchos.  1.0-m prime focus + CCD.
J04 ESA Optical Ground Station, Tenerife.  Observers P. Ruiz, M. Micheli, F.
    Ocana, L. Conversi.  Measurers R. Kresken, M. Micheli, F. Ocana, A.
    Knofel, M. Busch, E. Schwab.  1.0-m f/4.4 reflector + CCD.
J95 Great Shefford.  Observer P. Birtwhistle.  0.41-m f/6.3 Schmidt-Cassegrain
    + CCD.
L01 Visnjan Observatory, Tican.  Observer K. Korlevic.  1.0-m f/2.9 reflector
    + CCD.
V00 Kitt Peak-Bok.  Observer K. W. Wierzchos.  Measurers M. J. Brucker, C. E.
    Woodward, D. Fay, J. B. Fazekas, D. C. Fuls, A. R. Gibbs, H. Groeller, J.
    K. Hogan, R. A. Kowalski, S. M. Larson, C. Lejoly, G. J. Leonard, R. A.
    Mastaler, R. S. McMillan, D. Rankin, R. L. Seaman, A. Serrano, F. C.
    Shelly, K. W. Wierzchos.  2.25-m reflector + 4x4K mosaic CCD.
Orbital elements:
2023 VH7                                                 Earth MOID = 0.0471 AU
Epoch 2023 Sept. 13.0 TT = JDT 2460200.5                Veres                   
M 131.45423              (2000.0)            P               Q                  
n   1.04664259     Peri.  349.15883     -0.77946191     +0.60010251             
a   0.9607354      Node   229.25612     -0.55554391     -0.79477809             
e   0.0817094      Incl.   13.72569     -0.28949971     -0.09058013             
P   0.94           H   25.77          G   0.15           U   6                  
Residuals in seconds of arc
231110 V00  0.4-  0.6-    231110 J95  0.4-  0.3+    231111 204  0.0   0.1+
231110 V00  0.1-  0.1-    231111 J95  0.3-  0.3-    231111 I52  0.4-  0.1-
231110 V00  0.1+  0.4+    231111 J95  0.4-  0.4+    231111 I52  0.2+  0.2-
231110 V00  0.3+  0.1-    231111 J95  0.6-  0.2-    231111 I52  0.4+  0.0
231110 I52  0.3-  0.4-    231111 J95  0.6+  0.2+    231111 I52  0.2+  0.1-
231110 I52  0.1+  0.1-    231111 J04  0.1+  0.1+    231112 L01  0.4-  0.1+
231110 I52  0.5-  0.2+    231111 J04  0.5+  0.0     231112 L01  0.5-  0.1+
231110 I52  0.3+  0.4+    231111 204  0.6-  0.4-    231112 L01  0.3-  0.3+
Ephemeris:
2023 VH7                 a,e,i = 0.96, 0.08, 14                  q = 0.8822
Date    TT    R. A. (2000) Decl.     Delta      r    Elong.  Phase     V
2023 10 13    06 21 11.3 +69 56 48   0.1457  1.0362   101.2    70.9    24.1
...
2023 10 28    06 03 47.4 +57 21 39   0.09244 1.0392   117.1    58.3    22.8
...
2023 11 05    05 41 45.8 +41 41 11   0.06761 1.0387   132.7    44.6    21.7
...
2023 11 11    05 20 40.5 +21 16 06   0.05563 1.0374   147.1    31.2    20.9
2023 11 12    05 16 54.4 +17 06 46   0.05458 1.0371   148.8    29.6    20.8
2023 11 13    05 13 05.6 +12 49 07   0.05386 1.0368   150.0    28.5    20.8
...
2023 11 19    04 49 57.6 -12 40 54   0.05679 1.0344   143.1    35.0    21.1
...
2023 11 27    04 21 22.4 -35 45 26   0.07539 1.0301   123.2    53.3    22.2
...
2023 12 12    03 42 21.5 -52 12 22   0.1248  1.0184   102.2    70.9    23.8
M. P. C. Staff               (C) Copyright 2023 MPC           M.P.E.C. 2023-V209
    
    
More information about the Iaude
mailing list